Time,TemperatureF,DewpointF,PressureIn,WindDirection,WindDirectionDegrees,WindSpeedMPH,WindSpeedGustMPH,Humidity,HourlyPrecipIn,Conditions,Clouds,dailyrainin,SoftwareType,DateUTC
2013-09-27 00:01:00,54.3,43.2,29.29,NW,314,0.0,0.0,66,0.00,,---,0.00,VWS V14.01,2013-09-27 04:01:00,
2013-09-27 00:02:00,54.3,43.2,29.29,NW,314,0.0,0.0,66,0.00,,---,0.00,VWS V14.01,2013-09-27 04:02:00,
2013-09-27 00:03:00,54.3,43.2,29.29,NW,314,0.0,0.0,66,0.00,,---,0.00,VWS V14.01,2013-09-27 04:03:00,
2013-09-27 00:05:00,54.3,43.2,29.29,NW,314,0.0,0.0,66,0.00,,---,0.00,VWS V14.01,2013-09-27 04:05:00,
2013-09-27 00:06:00,54.3,43.2,29.29,NW,314,0.0,0.0,66,0.00,,---,0.00,VWS V14.01,2013-09-27 04:06:00,
2013-09-27 00:11:00,54.1,43.0,29.29,NW,314,0.0,0.0,66,0.00,,---,0.00,VWS V14.01,2013-09-27 04:11:00,
2013-09-27 00:16:00,54.0,43.3,29.29,NW,314,0.0,0.0,67,0.00,,---,0.00,VWS V14.01,2013-09-27 04:16:00,
2013-09-27 00:22:00,54.0,43.7,29.29,NW,314,0.0,0.0,68,0.00,,---,0.00,VWS V14.01,2013-09-27 04:22:00,
2013-09-27 00:27:00,54.0,43.7,29.29,NW,310,0.0,0.0,68,0.00,,---,0.00,VWS V14.01,2013-09-27 04:27:00,
2013-09-27 00:32:00,54.0,44.0,29.29,NW,310,0.0,0.0,69,0.00,,---,0.00,VWS V14.01,2013-09-27 04:32:00,
2013-09-27 00:37:00,53.8,43.9,29.29,NW,310,0.0,0.0,69,0.00,,---,0.00,VWS V14.01,2013-09-27 04:37:00,
2013-09-27 00:42:00,53.8,43.9,29.29,NW,310,0.0,0.0,69,0.00,,---,0.00,VWS V14.01,2013-09-27 04:42:00,
2013-09-27 00:47:00,53.8,44.2,29.29,NW,310,0.0,0.0,70,0.00,,---,0.00,VWS V14.01,2013-09-27 04:47:00,
2013-09-27 00:52:00,53.8,44.2,29.29,NW,310,0.0,0.0,70,0.00,,---,0.00,VWS V14.01,2013-09-27 04:52:00,
2013-09-27 00:57:00,53.8,44.2,29.29,NW,310,0.0,0.0,70,0.00,,---,0.00,VWS V14.01,2013-09-27 04:57:00,
2013-09-27 01:02:00,53.8,44.2,29.29,NW,310,0.0,0.0,70,0.00,,---,0.00,VWS V14.01,2013-09-27 05:02:00,
2013-09-27 01:07:00,53.8,44.2,29.29,NW,310,0.0,0.0,70,0.00,,---,0.00,VWS V14.01,2013-09-27 05:07:00,
2013-09-27 01:12:00,53.8,44.2,29.29,NW,310,0.0,0.0,70,0.00,,---,0.00,VWS V14.01,2013-09-27 05:12:00,
2013-09-27 01:17:00,53.8,44.6,29.29,NW,310,0.0,0.0,71,0.00,,---,0.00,VWS V14.01,2013-09-27 05:17:00,
2013-09-27 01:22:00,53.6,44.4,29.29,NW,310,0.0,0.0,71,0.00,,---,0.00,VWS V14.01,2013-09-27 05:22:00,
2013-09-27 01:27:00,53.6,44.4,29.29,NW,310,0.0,0.0,71,0.00,,---,0.00,VWS V14.01,2013-09-27 05:27:00,
2013-09-27 01:32:00,53.6,44.8,29.29,NW,310,0.0,0.0,72,0.00,,---,0.00,VWS V14.01,2013-09-27 05:32:00,
2013-09-27 01:37:00,53.6,45.2,29.29,NW,310,0.0,0.0,73,0.00,,---,0.00,VWS V14.01,2013-09-27 05:37:00,
2013-09-27 01:42:00,53.4,45.0,29.29,NW,310,0.0,0.0,73,0.00,,---,0.00,VWS V14.01,2013-09-27 05:42:00,
2013-09-27 01:47:00,53.6,45.2,29.29,NW,310,0.0,0.0,73,0.00,,---,0.00,VWS V14.01,2013-09-27 05:47:00,
2013-09-27 01:52:00,53.4,45.0,29.29,NW,310,0.0,0.0,73,0.00,,---,0.00,VWS V14.01,2013-09-27 05:52:00,
2013-09-27 01:57:00,53.2,44.8,29.29,NW,310,0.0,0.0,73,0.00,,---,0.00,VWS V14.01,2013-09-27 05:57:00,
2013-09-27 02:02:00,53.1,44.3,29.32,NW,310,0.0,0.0,72,0.00,,---,0.00,VWS V14.01,2013-09-27 06:02:00,
2013-09-27 02:07:00,52.9,44.1,29.32,NW,310,0.0,0.0,72,0.00,,---,0.00,VWS V14.01,2013-09-27 06:07:00,
2013-09-27 02:12:00,52.7,44.3,29.32,NW,310,0.0,0.0,73,0.00,,---,0.00,VWS V14.01,2013-09-27 06:12:00,
2013-09-27 02:17:00,52.5,44.5,29.32,NW,310,0.0,0.0,74,0.00,,---,0.00,VWS V14.01,2013-09-27 06:17:00,
2013-09-27 02:22:00,52.5,44.5,29.32,NW,310,0.0,0.0,74,0.00,,---,0.00,VWS V14.01,2013-09-27 06:22:00,
2013-09-27 02:27:00,52.3,45.3,29.32,NW,310,0.0,0.0,77,0.00,,---,0.00,VWS V14.01,2013-09-27 06:27:00,
2013-09-27 02:33:00,52.2,45.5,29.32,NW,310,0.0,0.0,78,0.00,,---,0.00,VWS V14.01,2013-09-27 06:33:00,
2013-09-27 02:38:00,52.2,45.5,29.32,NW,310,0.0,0.0,78,0.00,,---,0.00,VWS V14.01,2013-09-27 06:38:00,
2013-09-27 02:43:00,52.2,45.5,29.32,NW,310,0.0,0.0,78,0.00,,---,0.00,VWS V14.01,2013-09-27 06:43:00,
2013-09-27 02:49:00,52.2,45.8,29.32,NW,310,0.0,0.0,79,0.00,,---,0.00,VWS V14.01,2013-09-27 06:49:00,
2013-09-27 02:54:00,52.2,45.8,29.32,NW,310,0.0,0.0,79,0.00,,---,0.00,VWS V14.01,2013-09-27 06:54:00,
2013-09-27 02:59:00,52.2,45.8,29.32,NW,310,0.0,0.0,79,0.00,,---,0.00,VWS V14.01,2013-09-27 06:59:00,
2013-09-27 03:04:00,52.2,45.8,29.29,NW,310,0.0,0.0,79,0.00,,---,0.00,VWS V14.01,2013-09-27 07:04:00,
2013-09-27 03:09:00,52.2,45.8,29.29,NW,310,0.0,0.0,79,0.00,,---,0.00,VWS V14.01,2013-09-27 07:09:00,
2013-09-27 03:14:00,52.0,45.7,29.29,NW,310,0.0,0.0,79,0.00,,---,0.00,VWS V14.01,2013-09-27 07:14:00,
2013-09-27 03:19:00,52.0,45.7,29.29,NW,310,0.0,0.0,79,0.00,,---,0.00,VWS V14.01,2013-09-27 07:19:00,
2013-09-27 03:25:00,51.8,45.5,29.29,NW,310,0.0,0.0,79,0.00,,---,0.00,VWS V14.01,2013-09-27 07:25:00,
2013-09-27 03:30:00,51.8,45.8,29.29,NW,310,0.0,0.0,80,0.00,,---,0.00,VWS V14.01,2013-09-27 07:30:00,
2013-09-27 03:35:00,51.8,45.8,29.29,NW,310,0.0,0.0,80,0.00,,---,0.00,VWS V14.01,2013-09-27 07:35:00,
2013-09-27 03:40:00,51.8,46.2,29.29,NW,310,0.0,0.0,81,0.00,,---,0.00,VWS V14.01,2013-09-27 07:40:00,
2013-09-27 03:45:00,51.8,46.2,29.32,NW,310,0.0,0.0,81,0.00,,---,0.00,VWS V14.01,2013-09-27 07:45:00,
2013-09-27 03:49:00,51.8,46.2,29.32,NW,310,0.0,0.0,81,0.00,,---,0.00,VWS V14.01,2013-09-27 07:49:00,
2013-09-27 03:54:00,51.8,46.2,29.32,NW,310,0.0,0.0,81,0.00,,---,0.00,VWS V14.01,2013-09-27 07:54:00,
2013-09-27 03:59:00,51.6,46.0,29.32,NW,310,0.0,0.0,81,0.00,,---,0.00,VWS V14.01,2013-09-27 07:59:00,
2013-09-27 04:05:00,51.6,46.0,29.32,NW,310,0.0,0.0,81,0.00,,---,0.00,VWS V14.01,2013-09-27 08:05:00,
2013-09-27 04:10:00,51.4,45.8,29.32,NW,310,0.0,0.0,81,0.00,,---,0.00,VWS V14.01,2013-09-27 08:10:00,
2013-09-27 04:15:00,51.4,45.8,29.32,NW,310,0.0,0.0,81,0.00,,---,0.00,VWS V14.01,2013-09-27 08:15:00,
2013-09-27 04:20:00,51.4,45.8,29.32,NW,310,0.0,0.0,81,0.00,,---,0.00,VWS V14.01,2013-09-27 08:20:00,
2013-09-27 04:25:00,51.4,46.1,29.32,NW,310,0.0,0.0,82,0.00,,---,0.00,VWS V14.01,2013-09-27 08:25:00,
2013-09-27 04:30:00,51.3,46.0,29.32,NW,310,0.0,0.0,82,0.00,,---,0.00,VWS V14.01,2013-09-27 08:30:00,
2013-09-27 04:35:00,51.3,46.0,29.32,NW,310,0.0,0.0,82,0.00,,---,0.00,VWS V14.01,2013-09-27 08:35:00,
2013-09-27 04:40:00,51.3,46.3,29.32,NW,310,0.0,0.0,83,0.00,,---,0.00,VWS V14.01,2013-09-27 08:40:00,
2013-09-27 04:46:00,51.3,46.6,29.32,NW,310,0.0,0.0,84,0.00,,---,0.00,VWS V14.01,2013-09-27 08:46:00,
2013-09-27 04:51:00,51.1,46.7,29.32,NW,310,0.0,0.0,85,0.00,,---,0.00,VWS V14.01,2013-09-27 08:51:00,
2013-09-27 04:56:00,51.1,46.7,29.32,NW,310,0.0,0.0,85,0.00,,---,0.00,VWS V14.01,2013-09-27 08:56:00,
2013-09-27 05:01:00,50.9,46.9,29.32,NW,310,0.0,0.0,86,0.00,,---,0.00,VWS V14.01,2013-09-27 09:01:00,
2013-09-27 05:06:00,50.9,46.9,29.32,NW,310,0.0,0.0,86,0.00,,---,0.00,VWS V14.01,2013-09-27 09:06:00,
2013-09-27 05:11:00,50.7,46.7,29.32,NW,310,0.0,0.0,86,0.00,,---,0.00,VWS V14.01,2013-09-27 09:11:00,
2013-09-27 05:16:00,50.5,46.8,29.32,NW,310,0.0,0.0,87,0.00,,---,0.00,VWS V14.01,2013-09-27 09:16:00,
2013-09-27 05:21:00,50.5,46.8,29.32,NW,310,0.0,0.0,87,0.00,,---,0.00,VWS V14.01,2013-09-27 09:21:00,
2013-09-27 05:26:00,50.5,46.8,29.32,NW,310,0.0,0.0,87,0.00,,---,0.00,VWS V14.01,2013-09-27 09:26:00,
2013-09-27 05:31:00,50.5,47.1,29.32,NW,310,0.0,0.0,88,0.00,,---,0.00,VWS V14.01,2013-09-27 09:31:00,
2013-09-27 05:36:00,50.5,47.1,29.32,NW,310,0.0,0.0,88,0.00,,---,0.00,VWS V14.01,2013-09-27 09:36:00,
2013-09-27 05:41:00,50.7,47.3,29.32,NW,310,0.0,0.0,88,0.00,,---,0.00,VWS V14.01,2013-09-27 09:41:00,
2013-09-27 05:46:00,50.7,47.6,29.35,NW,310,0.0,0.0,89,0.00,,---,0.00,VWS V14.01,2013-09-27 09:46:00,
2013-09-27 05:51:00,50.7,47.6,29.35,NW,310,0.0,0.0,89,0.00,,---,0.00,VWS V14.01,2013-09-27 09:51:00,
2013-09-27 05:56:00,50.7,47.6,29.35,NW,310,0.0,0.0,89,0.00,,---,0.00,VWS V14.01,2013-09-27 09:56:00,
2013-09-27 06:01:00,50.7,47.6,29.35,NW,310,0.0,0.0,89,0.00,,---,0.00,VWS V14.01,2013-09-27 10:01:00,
2013-09-27 06:06:00,50.7,47.3,29.35,NW,310,0.0,0.0,88,0.00,,---,0.00,VWS V14.01,2013-09-27 10:06:00,
2013-09-27 06:12:00,50.7,47.3,29.35,NW,310,0.0,0.0,88,0.00,,---,0.00,VWS V14.01,2013-09-27 10:12:00,
2013-09-27 06:17:00,50.5,47.1,29.35,NW,310,0.0,0.0,88,0.00,,---,0.00,VWS V14.01,2013-09-27 10:17:00,
2013-09-27 06:23:00,50.4,46.6,29.35,NW,310,0.0,0.0,87,0.00,,---,0.00,VWS V14.01,2013-09-27 10:23:00,
2013-09-27 06:28:00,50.4,46.6,29.35,NW,310,0.0,0.0,87,0.00,,---,0.00,VWS V14.01,2013-09-27 10:28:00,
2013-09-27 06:33:00,50.2,46.8,29.35,NW,310,0.0,0.0,88,0.00,,---,0.00,VWS V14.01,2013-09-27 10:33:00,
2013-09-27 06:38:00,50.2,46.8,29.35,NW,310,0.0,0.0,88,0.00,,---,0.00,VWS V14.01,2013-09-27 10:38:00,
2013-09-27 06:43:00,50.2,47.1,29.35,NW,310,0.0,0.0,89,0.00,,---,0.00,VWS V14.01,2013-09-27 10:43:00,
2013-09-27 06:48:00,50.2,47.1,29.35,NW,310,0.0,0.0,89,0.00,,---,0.00,VWS V14.01,2013-09-27 10:48:00,
2013-09-27 06:53:00,50.2,47.1,29.35,NW,310,0.0,0.0,89,0.00,,---,0.00,VWS V14.01,2013-09-27 10:53:00,
2013-09-27 06:58:00,50.4,47.2,29.35,NW,310,0.0,0.0,89,0.00,,---,0.00,VWS V14.01,2013-09-27 10:58:00,
2013-09-27 07:03:00,50.5,48.0,29.35,NW,310,0.0,0.0,91,0.00,,---,0.00,VWS V14.01,2013-09-27 11:03:00,
2013-09-27 07:08:00,50.9,48.7,29.35,NW,310,0.0,0.0,92,0.00,,---,0.00,VWS V14.01,2013-09-27 11:08:00,
2013-09-27 07:13:00,51.3,49.3,29.35,NW,310,0.0,0.0,93,0.00,,---,0.00,VWS V14.01,2013-09-27 11:13:00,
2013-09-27 07:18:00,51.4,49.5,29.35,NW,310,0.0,0.0,93,0.00,,---,0.00,VWS V14.01,2013-09-27 11:18:00,
2013-09-27 07:23:00,51.6,49.7,29.35,NW,310,0.0,0.0,93,0.00,,---,0.00,VWS V14.01,2013-09-27 11:23:00,
2013-09-27 07:28:00,51.8,49.8,29.35,North,351,0.0,0.0,93,0.00,,---,0.00,VWS V14.01,2013-09-27 11:28:00,
2013-09-27 07:34:00,52.0,49.7,29.38,North,351,0.0,0.0,92,0.00,,---,0.00,VWS V14.01,2013-09-27 11:34:00,
2013-09-27 07:39:00,52.3,49.5,29.38,North,351,0.0,0.0,90,0.00,,---,0.00,VWS V14.01,2013-09-27 11:39:00,
2013-09-27 07:44:00,52.7,49.5,29.38,North,351,0.0,0.0,89,0.00,,---,0.00,VWS V14.01,2013-09-27 11:44:00,
2013-09-27 07:49:00,53.1,49.3,29.38,North,351,0.0,0.0,87,0.00,,---,0.00,VWS V14.01,2013-09-27 11:49:00,
2013-09-27 07:54:00,53.4,49.7,29.38,North,351,0.0,0.0,87,0.00,,---,0.00,VWS V14.01,2013-09-27 11:54:00,
2013-09-27 07:59:00,53.6,49.2,29.38,North,351,0.0,0.0,85,0.00,,---,0.00,VWS V14.01,2013-09-27 11:59:00,
2013-09-27 08:04:00,54.0,49.2,29.38,North,351,0.0,0.0,84,0.00,,---,0.00,VWS V14.01,2013-09-27 12:04:00,
2013-09-27 08:09:00,54.5,49.8,29.38,North,351,0.0,0.0,84,0.00,,---,0.00,VWS V14.01,2013-09-27 12:09:00,
2013-09-27 08:14:00,54.5,49.5,29.38,North,351,0.0,0.0,83,0.00,,---,0.00,VWS V14.01,2013-09-27 12:14:00,
2013-09-27 08:20:00,55.2,49.8,29.38,North,351,0.0,0.0,82,0.00,,---,0.00,VWS V14.01,2013-09-27 12:20:00,
2013-09-27 08:26:00,55.6,49.8,29.38,North,351,0.0,0.0,81,0.00,,---,0.00,VWS V14.01,2013-09-27 12:26:00,
2013-09-27 08:31:00,56.1,50.0,29.38,ENE,58,0.0,0.0,80,0.00,,---,0.00,VWS V14.01,2013-09-27 12:31:00,
2013-09-27 08:36:00,56.3,49.5,29.38,SE,142,0.0,0.0,78,0.00,,---,0.00,VWS V14.01,2013-09-27 12:36:00,
2013-09-27 08:41:00,56.7,49.9,29.38,SE,144,0.0,0.0,78,0.00,,---,0.00,VWS V14.01,2013-09-27 12:41:00,
2013-09-27 08:46:00,57.0,48.8,29.38,ESE,117,0.0,0.0,74,0.00,,---,0.00,VWS V14.01,2013-09-27 12:46:00,
2013-09-27 08:51:00,57.2,48.3,29.38,East,95,0.0,2.7,72,0.00,,---,0.00,VWS V14.01,2013-09-27 12:51:00,
2013-09-27 08:57:00,57.7,48.0,29.38,ENE,78,0.0,0.0,70,0.00,,---,0.00,VWS V14.01,2013-09-27 12:57:00,
2013-09-27 09:02:00,57.7,44.0,29.41,West,277,0.0,0.0,60,0.00,,---,0.00,VWS V14.01,2013-09-27 13:02:00,
2013-09-27 09:07:00,57.9,42.8,29.41,ESE,122,4.9,4.9,57,0.00,,---,0.00,VWS V14.01,2013-09-27 13:07:00,
2013-09-27 09:12:00,58.5,42.4,29.41,West,281,0.0,2.7,55,0.00,,---,0.00,VWS V14.01,2013-09-27 13:12:00,
2013-09-27 09:17:00,58.5,39.9,29.41,ESE,114,0.0,4.5,50,0.00,,---,0.00,VWS V14.01,2013-09-27 13:17:00,
2013-09-27 09:22:00,58.8,40.8,29.41,East,86,0.0,4.5,51,0.00,,---,0.00,VWS V14.01,2013-09-27 13:22:00,
2013-09-27 09:27:00,59.4,41.2,29.41,SSE,149,3.1,5.4,51,0.00,,---,0.00,VWS V14.01,2013-09-27 13:27:00,
2013-09-27 09:33:00,59.7,41.1,29.41,East,90,0.0,0.0,50,0.00,,---,0.00,VWS V14.01,2013-09-27 13:33:00,
2013-09-27 09:38:00,60.3,41.0,29.41,East,86,0.0,0.0,49,0.00,,---,0.00,VWS V14.01,2013-09-27 13:38:00,
2013-09-27 09:43:00,60.6,40.8,29.41,North,0,3.6,3.6,48,0.00,,---,0.00,VWS V14.01,2013-09-27 13:43:00,
2013-09-27 09:48:00,60.8,39.9,29.41,SE,127,0.0,3.1,46,0.00,,---,0.00,VWS V14.01,2013-09-27 13:48:00,
2013-09-27 09:53:00,61.2,39.7,29.41,ESE,102,3.6,4.9,45,0.00,,---,0.00,VWS V14.01,2013-09-27 13:53:00,
2013-09-27 09:58:00,61.2,37.3,29.41,ENE,74,0.0,5.4,41,0.00,,---,0.00,VWS V14.01,2013-09-27 13:58:00,
2013-09-27 10:03:00,61.0,38.3,29.41,NNW,336,0.0,3.1,43,0.00,,---,0.00,VWS V14.01,2013-09-27 14:03:00,
2013-09-27 10:08:00,60.8,38.8,29.41,ENE,67,0.0,0.0,44,0.00,,---,0.00,VWS V14.01,2013-09-27 14:08:00,
2013-09-27 10:14:00,60.6,38.6,29.41,ENE,66,4.9,6.3,44,0.00,,---,0.00,VWS V14.01,2013-09-27 14:14:00,
2013-09-27 10:20:00,60.1,38.7,29.41,East,82,3.1,3.1,45,0.00,,---,0.00,VWS V14.01,2013-09-27 14:20:00,
2013-09-27 10:26:00,60.3,39.4,29.41,SE,144,3.6,4.0,46,0.00,,---,0.00,VWS V14.01,2013-09-27 14:26:00,
2013-09-27 10:31:00,60.4,39.6,29.41,South,169,0.0,0.0,46,0.00,,---,0.00,VWS V14.01,2013-09-27 14:31:00,
2013-09-27 10:36:00,60.6,39.2,29.41,ESE,103,0.0,0.0,45,0.00,,---,0.00,VWS V14.01,2013-09-27 14:36:00,
2013-09-27 10:41:00,61.5,40.6,29.41,ENE,76,4.9,4.9,46,0.00,,---,0.00,VWS V14.01,2013-09-27 14:41:00,
2013-09-27 10:46:00,62.1,39.9,29.41,North,0,3.1,5.8,44,0.00,,---,0.00,VWS V14.01,2013-09-27 14:46:00,
2013-09-27 10:51:00,62.6,39.2,29.41,East,98,0.0,3.1,42,0.00,,---,0.00,VWS V14.01,2013-09-27 14:51:00,
2013-09-27 10:56:00,62.4,36.5,29.41,East,99,4.5,6.3,38,0.00,,---,0.00,VWS V14.01,2013-09-27 14:56:00,
2013-09-27 11:01:00,62.1,36.8,29.41,East,83,0.0,0.0,39,0.00,,---,0.00,VWS V14.01,2013-09-27 15:01:00,
2013-09-27 11:06:00,62.2,38.3,29.41,ESE,114,3.6,4.0,41,0.00,,---,0.00,VWS V14.01,2013-09-27 15:06:00,
2013-09-27 11:11:00,61.9,37.3,29.41,North,4,0.0,0.0,40,0.00,,---,0.00,VWS V14.01,2013-09-27 15:11:00,
2013-09-27 11:16:00,61.3,37.5,29.41,South,186,0.0,0.0,41,0.00,,---,0.00,VWS V14.01,2013-09-27 15:16:00,
2013-09-27 11:21:00,61.2,38.5,29.41,SSE,159,2.7,4.9,43,0.00,,---,0.00,VWS V14.01,2013-09-27 15:21:00,
2013-09-27 11:26:00,61.2,37.9,29.41,ESE,107,0.0,0.0,42,0.00,,---,0.00,VWS V14.01,2013-09-27 15:26:00,
2013-09-27 11:31:00,61.2,39.1,29.41,East,97,2.7,4.0,44,0.00,,---,0.00,VWS V14.01,2013-09-27 15:31:00,
2013-09-27 11:36:00,61.7,40.2,29.41,SSE,148,0.0,3.1,45,0.00,,---,0.00,VWS V14.01,2013-09-27 15:36:00,
2013-09-27 11:41:00,62.1,41.1,29.41,SE,134,0.0,0.0,46,0.00,,---,0.00,VWS V14.01,2013-09-27 15:41:00,
2013-09-27 11:46:00,62.1,40.5,29.41,ESE,110,0.0,0.0,45,0.00,,---,0.00,VWS V14.01,2013-09-27 15:46:00,
2013-09-27 11:51:00,61.9,38.6,29.41,SSE,152,3.1,4.9,42,0.00,,---,0.00,VWS V14.01,2013-09-27 15:51:00,
2013-09-27 11:56:00,61.7,37.2,29.41,SSW,212,0.0,4.0,40,0.00,,---,0.00,VWS V14.01,2013-09-27 15:56:00,
2013-09-27 12:01:00,61.7,38.4,29.41,North,0,0.0,2.7,42,0.00,,---,0.00,VWS V14.01,2013-09-27 16:01:00,
2013-09-27 12:06:00,61.5,37.6,29.41,ENE,64,0.0,0.0,41,0.00,,---,0.00,VWS V14.01,2013-09-27 16:06:00,
2013-09-27 12:11:00,61.3,37.5,29.41,SE,127,0.0,0.0,41,0.00,,---,0.00,VWS V14.01,2013-09-27 16:11:00,
2013-09-27 12:16:00,61.3,38.1,29.41,ENE,62,0.0,0.0,42,0.00,,---,0.00,VWS V14.01,2013-09-27 16:16:00,
2013-09-27 12:21:00,61.2,38.5,29.41,ESE,108,0.0,0.0,43,0.00,,---,0.00,VWS V14.01,2013-09-27 16:21:00,
2013-09-27 12:26:00,61.0,38.9,29.41,ESE,108,0.0,0.0,44,0.00,,---,0.00,VWS V14.01,2013-09-27 16:26:00,
2013-09-27 12:31:00,60.8,38.8,29.41,ENE,58,0.0,0.0,44,0.00,,---,0.00,VWS V14.01,2013-09-27 16:31:00,
2013-09-27 12:36:00,60.8,38.8,29.41,ENE,58,0.0,0.0,44,0.00,,---,0.00,VWS V14.01,2013-09-27 16:36:00,
2013-09-27 12:41:00,61.2,39.1,29.41,East,92,0.0,0.0,44,0.00,,---,0.00,VWS V14.01,2013-09-27 16:41:00,
2013-09-27 12:46:00,61.3,38.1,29.41,SSE,157,0.0,0.0,42,0.00,,---,0.00,VWS V14.01,2013-09-27 16:46:00,
2013-09-27 12:51:00,61.7,39.6,29.41,SSE,157,0.0,0.0,44,0.00,,---,0.00,VWS V14.01,2013-09-27 16:51:00,
2013-09-27 12:56:00,61.5,39.4,29.41,ESE,122,0.0,0.0,44,0.00,,---,0.00,VWS V14.01,2013-09-27 16:56:00,
2013-09-27 13:01:00,61.3,38.7,29.41,SE,138,0.0,0.0,43,0.00,,---,0.00,VWS V14.01,2013-09-27 17:01:00,
2013-09-27 13:06:00,61.0,38.3,29.41,SE,138,0.0,0.0,43,0.00,,---,0.00,VWS V14.01,2013-09-27 17:06:00,
2013-09-27 13:11:00,60.8,38.8,29.41,SE,138,0.0,0.0,44,0.00,,---,0.00,VWS V14.01,2013-09-27 17:11:00,
2013-09-27 13:16:00,60.8,39.9,29.41,SE,138,0.0,0.0,46,0.00,,---,0.00,VWS V14.01,2013-09-27 17:16:00,
2013-09-27 13:21:00,60.8,39.9,29.41,ESE,105,0.0,0.0,46,0.00,,---,0.00,VWS V14.01,2013-09-27 17:21:00,
2013-09-27 13:26:00,60.8,39.9,29.41,NE,52,0.0,0.0,46,0.00,,---,0.00,VWS V14.01,2013-09-27 17:26:00,
2013-09-27 13:31:00,60.8,39.3,29.41,East,84,0.0,0.0,45,0.00,,---,0.00,VWS V14.01,2013-09-27 17:31:00,
2013-09-27 13:36:00,60.8,39.3,29.41,East,84,0.0,0.0,45,0.00,,---,0.00,VWS V14.01,2013-09-27 17:36:00,
2013-09-27 13:39:00,60.8,39.3,29.41,East,84,0.0,0.0,45,0.00,,---,0.00,VWS V14.01,2013-09-27 17:39:00,
2013-09-27 13:44:00,60.8,39.3,29.41,East,84,0.0,0.0,45,0.00,,---,0.00,VWS V14.01,2013-09-27 17:44:00,
2013-09-27 13:49:00,60.8,39.9,29.41,ESE,117,0.0,0.0,46,0.00,,---,0.00,VWS V14.01,2013-09-27 17:49:00,
2013-09-27 13:54:00,60.6,39.8,29.41,ESE,117,0.0,0.0,46,0.00,,---,0.00,VWS V14.01,2013-09-27 17:54:00,
2013-09-27 13:59:00,60.6,40.3,29.41,ESE,117,0.0,0.0,47,0.00,,---,0.00,VWS V14.01,2013-09-27 17:59:00,
2013-09-27 14:04:00,60.6,40.3,29.38,ESE,117,0.0,0.0,47,0.00,,---,0.00,VWS V14.01,2013-09-27 18:04:00,
2013-09-27 14:09:00,60.6,41.4,29.38,ESE,117,0.0,0.0,49,0.00,,---,0.00,VWS V14.01,2013-09-27 18:09:00,
2013-09-27 14:14:00,60.8,41.5,29.38,ESE,117,0.0,0.0,49,0.00,,---,0.00,VWS V14.01,2013-09-27 18:14:00,
2013-09-27 14:19:00,61.0,41.2,29.38,ESE,117,0.0,0.0,48,0.00,,---,0.00,VWS V14.01,2013-09-27 18:19:00,
2013-09-27 14:24:00,61.2,41.9,29.38,ESE,102,0.0,0.0,49,0.00,,---,0.00,VWS V14.01,2013-09-27 18:24:00,
2013-09-27 14:29:00,61.3,41.5,29.38,East,84,0.0,0.0,48,0.00,,---,0.00,VWS V14.01,2013-09-27 18:29:00,
2013-09-27 14:34:00,61.5,41.7,29.38,East,84,0.0,0.0,48,0.00,,---,0.00,VWS V14.01,2013-09-27 18:34:00,
2013-09-27 14:39:00,61.7,41.8,29.38,East,84,0.0,0.0,48,0.00,,---,0.00,VWS V14.01,2013-09-27 18:39:00,
2013-09-27 14:44:00,61.5,41.7,29.38,East,84,0.0,0.0,48,0.00,,---,0.00,VWS V14.01,2013-09-27 18:44:00,
2013-09-27 14:49:00,61.5,41.7,29.38,East,84,0.0,0.0,48,0.00,,---,0.00,VWS V14.01,2013-09-27 18:49:00,
2013-09-27 14:54:00,61.3,41.5,29.38,East,84,0.0,0.0,48,0.00,,---,0.00,VWS V14.01,2013-09-27 18:54:00,
2013-09-27 14:59:00,61.3,41.5,29.38,East,84,0.0,0.0,48,0.00,,---,0.00,VWS V14.01,2013-09-27 18:59:00,
2013-09-27 15:04:00,61.2,41.9,29.38,East,84,0.0,0.0,49,0.00,,---,0.00,VWS V14.01,2013-09-27 19:04:00,
2013-09-27 15:09:00,61.0,41.7,29.38,East,84,0.0,0.0,49,0.00,,---,0.00,VWS V14.01,2013-09-27 19:09:00,
2013-09-27 15:14:00,61.0,42.2,29.38,East,84,0.0,0.0,50,0.00,,---,0.00,VWS V14.01,2013-09-27 19:14:00,
2013-09-27 15:20:00,60.8,42.6,29.38,East,84,0.0,0.0,51,0.00,,---,0.00,VWS V14.01,2013-09-27 19:20:00,
2013-09-27 15:25:00,60.6,42.4,29.38,East,84,0.0,0.0,51,0.00,,---,0.00,VWS V14.01,2013-09-27 19:25:00,
2013-09-27 15:30:00,60.6,42.4,29.38,East,84,0.0,0.0,51,0.00,,---,0.00,VWS V14.01,2013-09-27 19:30:00,
2013-09-27 15:35:00,60.6,42.9,29.38,ESE,108,0.0,0.0,52,0.00,,---,0.00,VWS V14.01,2013-09-27 19:35:00,
2013-09-27 15:40:00,60.6,43.4,29.38,ESE,108,0.0,0.0,53,0.00,,---,0.00,VWS V14.01,2013-09-27 19:40:00,
2013-09-27 15:45:00,60.8,44.1,29.38,ESE,108,0.0,0.0,54,0.00,,---,0.00,VWS V14.01,2013-09-27 19:45:00,
2013-09-27 15:50:00,60.6,44.4,29.38,ESE,108,0.0,0.0,55,0.00,,---,0.00,VWS V14.01,2013-09-27 19:50:00,
2013-09-27 15:56:00,60.8,44.1,29.38,ESE,108,0.0,0.0,54,0.00,,---,0.00,VWS V14.01,2013-09-27 19:56:00,
2013-09-27 16:01:00,60.6,43.4,29.38,ESE,108,0.0,0.0,53,0.00,,---,0.00,VWS V14.01,2013-09-27 20:01:00,
2013-09-27 16:06:00,60.8,43.6,29.38,ESE,108,0.0,0.0,53,0.00,,---,0.00,VWS V14.01,2013-09-27 20:06:00,
2013-09-27 16:11:00,60.6,43.4,29.38,ESE,108,0.0,0.0,53,0.00,,---,0.00,VWS V14.01,2013-09-27 20:11:00,
2013-09-27 16:16:00,60.6,43.4,29.38,ESE,108,0.0,0.0,53,0.00,,---,0.00,VWS V14.01,2013-09-27 20:16:00,
2013-09-27 16:21:00,60.6,43.9,29.38,ESE,108,0.0,0.0,54,0.00,,---,0.00,VWS V14.01,2013-09-27 20:21:00,
2013-09-27 16:26:00,60.6,43.9,29.38,ESE,108,0.0,0.0,54,0.00,,---,0.00,VWS V14.01,2013-09-27 20:26:00,
2013-09-27 16:31:00,60.6,44.4,29.38,ESE,108,0.0,0.0,55,0.00,,---,0.00,VWS V14.01,2013-09-27 20:31:00,
2013-09-27 16:37:00,60.6,44.4,29.38,ESE,108,0.0,0.0,55,0.00,,---,0.00,VWS V14.01,2013-09-27 20:37:00,
2013-09-27 16:42:00,60.4,44.2,29.38,ESE,108,0.0,0.0,55,0.00,,---,0.00,VWS V14.01,2013-09-27 20:42:00,
2013-09-27 16:47:00,60.4,44.2,29.38,ESE,108,0.0,0.0,55,0.00,,---,0.00,VWS V14.01,2013-09-27 20:47:00,
2013-09-27 16:52:00,60.4,44.7,29.38,ESE,108,0.0,0.0,56,0.00,,---,0.00,VWS V14.01,2013-09-27 20:52:00,
2013-09-27 16:58:00,60.4,45.2,29.38,NW,307,0.0,0.0,57,0.00,,---,0.00,VWS V14.01,2013-09-27 20:58:00,
2013-09-27 17:03:00,60.3,44.0,29.38,ENE,70,0.0,0.0,55,0.00,,---,0.00,VWS V14.01,2013-09-27 21:03:00,
2013-09-27 17:08:00,60.4,43.7,29.38,South,169,0.0,3.1,54,0.00,,---,0.00,VWS V14.01,2013-09-27 21:08:00,
2013-09-27 17:13:00,60.4,43.2,29.38,South,170,0.0,0.0,53,0.00,,---,0.00,VWS V14.01,2013-09-27 21:13:00,
2013-09-27 17:18:00,60.6,42.9,29.38,South,170,0.0,0.0,52,0.00,,---,0.00,VWS V14.01,2013-09-27 21:18:00,
2013-09-27 17:23:00,60.6,43.4,29.38,South,170,0.0,0.0,53,0.00,,---,0.00,VWS V14.01,2013-09-27 21:23:00,
2013-09-27 17:29:00,60.4,42.2,29.38,East,96,0.0,3.6,51,0.00,,---,0.00,VWS V14.01,2013-09-27 21:29:00,
2013-09-27 17:34:00,60.6,42.4,29.38,SSE,161,0.0,0.0,51,0.00,,---,0.00,VWS V14.01,2013-09-27 21:34:00,
2013-09-27 17:39:00,60.4,42.2,29.38,NW,305,0.0,3.1,51,0.00,,---,0.00,VWS V14.01,2013-09-27 21:39:00,
2013-09-27 17:44:00,60.3,41.6,29.38,NE,47,0.0,0.0,50,0.00,,---,0.00,VWS V14.01,2013-09-27 21:44:00,
2013-09-27 17:49:00,60.3,42.1,29.38,SE,134,0.0,0.0,51,0.00,,---,0.00,VWS V14.01,2013-09-27 21:49:00,
2013-09-27 17:54:00,60.1,42.4,29.38,SE,134,0.0,0.0,52,0.00,,---,0.00,VWS V14.01,2013-09-27 21:54:00,
2013-09-27 17:59:00,59.9,42.7,29.38,SSE,156,0.0,0.0,53,0.00,,---,0.00,VWS V14.01,2013-09-27 21:59:00,
2013-09-27 18:04:00,59.9,43.2,29.41,SSE,156,0.0,0.0,54,0.00,,---,0.00,VWS V14.01,2013-09-27 22:04:00,
2013-09-27 18:09:00,59.7,43.5,29.41,SSE,156,0.0,0.0,55,0.00,,---,0.00,VWS V14.01,2013-09-27 22:09:00,
2013-09-27 18:15:00,59.5,43.8,29.41,SSE,156,0.0,0.0,56,0.00,,---,0.00,VWS V14.01,2013-09-27 22:15:00,
2013-09-27 18:20:00,59.5,44.3,29.41,SE,136,0.0,0.0,57,0.00,,---,0.00,VWS V14.01,2013-09-27 22:20:00,
2013-09-27 18:25:00,59.5,44.8,29.41,ESE,123,0.0,0.0,58,0.00,,---,0.00,VWS V14.01,2013-09-27 22:25:00,
2013-09-27 18:30:00,59.4,45.0,29.41,SE,128,0.0,0.0,59,0.00,,---,0.00,VWS V14.01,2013-09-27 22:30:00,
2013-09-27 18:35:00,59.4,45.0,29.41,ESE,116,0.0,3.6,59,0.00,,---,0.00,VWS V14.01,2013-09-27 22:35:00,
2013-09-27 18:40:00,59.4,45.0,29.41,ESE,113,0.0,0.0,59,0.00,,---,0.00,VWS V14.01,2013-09-27 22:40:00,
2013-09-27 18:46:00,59.4,45.0,29.41,ESE,113,0.0,0.0,59,0.00,,---,0.00,VWS V14.01,2013-09-27 22:46:00,
2013-09-27 18:51:00,59.2,44.9,29.41,ESE,110,0.0,4.0,59,0.00,,---,0.00,VWS V14.01,2013-09-27 22:51:00,
2013-09-27 18:56:00,59.2,44.4,29.41,ESE,118,0.0,0.0,58,0.00,,---,0.00,VWS V14.01,2013-09-27 22:56:00,
2013-09-27 19:01:00,59.0,44.7,29.41,ESE,118,0.0,0.0,59,0.00,,---,0.00,VWS V14.01,2013-09-27 23:01:00,
2013-09-27 19:06:00,58.8,44.5,29.41,SE,130,0.0,0.0,59,0.00,,---,0.00,VWS V14.01,2013-09-27 23:06:00,
2013-09-27 19:11:00,58.8,44.5,29.41,SSE,158,0.0,0.0,59,0.00,,---,0.00,VWS V14.01,2013-09-27 23:11:00,
2013-09-27 19:16:00,58.6,44.4,29.41,SSE,153,0.0,0.0,59,0.00,,---,0.00,VWS V14.01,2013-09-27 23:16:00,
2013-09-27 19:21:00,58.6,44.4,29.41,SSE,153,0.0,0.0,59,0.00,,---,0.00,VWS V14.01,2013-09-27 23:21:00,
2013-09-27 19:26:00,58.5,44.6,29.41,SSE,153,0.0,0.0,60,0.00,,---,0.00,VWS V14.01,2013-09-27 23:26:00,
2013-09-27 19:31:00,58.5,45.1,29.41,West,278,0.0,0.0,61,0.00,,---,0.00,VWS V14.01,2013-09-27 23:31:00,
2013-09-27 19:36:00,58.3,45.3,29.41,NE,50,0.0,0.0,62,0.00,,---,0.00,VWS V14.01,2013-09-27 23:36:00,
2013-09-27 19:41:00,58.1,45.6,29.41,NE,50,0.0,0.0,63,0.00,,---,0.00,VWS V14.01,2013-09-27 23:41:00,
2013-09-27 19:46:00,58.1,45.6,29.41,NE,50,0.0,0.0,63,0.00,,---,0.00,VWS V14.01,2013-09-27 23:46:00,
2013-09-27 19:51:00,58.1,46.0,29.41,NE,50,0.0,0.0,64,0.00,,---,0.00,VWS V14.01,2013-09-27 23:51:00,
2013-09-27 19:56:00,57.9,46.2,29.41,NE,50,0.0,0.0,65,0.00,,---,0.00,VWS V14.01,2013-09-27 23:56:00,
2013-09-27 20:01:00,58.1,46.8,29.41,SSE,149,0.0,0.0,66,0.00,,---,0.00,VWS V14.01,2013-09-28 00:01:00,
2013-09-27 20:06:00,58.1,46.8,29.41,SSE,149,0.0,0.0,66,0.00,,---,0.00,VWS V14.01,2013-09-28 00:06:00,
2013-09-27 20:11:00,58.1,46.8,29.41,SSE,149,0.0,0.0,66,0.00,,---,0.00,VWS V14.01,2013-09-28 00:11:00,
2013-09-27 20:16:00,58.1,47.2,29.41,SSE,149,0.0,0.0,67,0.00,,---,0.00,VWS V14.01,2013-09-28 00:16:00,
2013-09-27 20:21:00,58.1,47.6,29.41,SSE,149,0.0,0.0,68,0.00,,---,0.00,VWS V14.01,2013-09-28 00:21:00,
2013-09-27 20:26:00,58.1,47.6,29.41,SSE,149,0.0,0.0,68,0.00,,---,0.00,VWS V14.01,2013-09-28 00:26:00,
2013-09-27 20:31:00,57.9,47.8,29.41,SSE,149,0.0,0.0,69,0.00,,---,0.00,VWS V14.01,2013-09-28 00:31:00,
2013-09-27 20:36:00,57.9,47.8,29.41,SSE,149,0.0,0.0,69,0.00,,---,0.00,VWS V14.01,2013-09-28 00:36:00,
2013-09-27 20:41:00,57.9,47.8,29.41,SSE,149,0.0,0.0,69,0.00,,---,0.00,VWS V14.01,2013-09-28 00:41:00,
2013-09-27 20:46:00,58.1,48.4,29.41,SSE,149,0.0,0.0,70,0.00,,---,0.00,VWS V14.01,2013-09-28 00:46:00,
2013-09-27 20:51:00,57.9,48.2,29.41,SSE,149,0.0,0.0,70,0.00,,---,0.00,VWS V14.01,2013-09-28 00:51:00,
2013-09-27 20:56:00,57.9,48.2,29.41,SSE,149,0.0,0.0,70,0.00,,---,0.00,VWS V14.01,2013-09-28 00:56:00,
2013-09-27 21:01:00,57.9,48.6,29.41,SSE,149,0.0,0.0,71,0.00,,---,0.00,VWS V14.01,2013-09-28 01:01:00,
2013-09-27 21:06:00,57.9,48.6,29.41,SSE,149,0.0,0.0,71,0.00,,---,0.00,VWS V14.01,2013-09-28 01:06:00,
2013-09-27 21:12:00,57.9,49.0,29.41,East,92,0.0,0.0,72,0.00,,---,0.00,VWS V14.01,2013-09-28 01:12:00,
2013-09-27 21:17:00,57.9,49.0,29.41,East,92,0.0,0.0,72,0.00,,---,0.00,VWS V14.01,2013-09-28 01:17:00,
2013-09-27 21:22:00,57.9,49.0,29.41,East,92,0.0,0.0,72,0.00,,---,0.00,VWS V14.01,2013-09-28 01:22:00,
2013-09-27 21:27:00,57.9,49.3,29.41,East,92,0.0,0.0,73,0.00,,---,0.00,VWS V14.01,2013-09-28 01:27:00,
2013-09-27 21:32:00,57.9,49.3,29.44,East,92,0.0,0.0,73,0.00,,---,0.00,VWS V14.01,2013-09-28 01:32:00,
2013-09-27 21:37:00,57.9,49.3,29.44,East,92,0.0,0.0,73,0.00,,---,0.00,VWS V14.01,2013-09-28 01:37:00,
2013-09-27 21:42:00,57.9,49.3,29.44,East,92,0.0,0.0,73,0.00,,---,0.00,VWS V14.01,2013-09-28 01:42:00,
2013-09-27 21:47:00,57.9,49.3,29.44,SE,124,0.0,0.0,73,0.00,,---,0.00,VWS V14.01,2013-09-28 01:47:00,
2013-09-27 21:52:00,57.9,49.3,29.44,SE,124,0.0,0.0,73,0.00,,---,0.00,VWS V14.01,2013-09-28 01:52:00,
2013-09-27 21:58:00,57.9,49.3,29.44,SE,124,0.0,0.0,73,0.00,,---,0.00,VWS V14.01,2013-09-28 01:58:00,
2013-09-27 22:03:00,57.9,49.3,29.44,SE,124,0.0,0.0,73,0.00,,---,0.00,VWS V14.01,2013-09-28 02:03:00,
2013-09-27 22:08:00,57.7,48.8,29.44,SE,124,0.0,0.0,72,0.00,,---,0.00,VWS V14.01,2013-09-28 02:08:00,
2013-09-27 22:13:00,57.7,48.8,29.44,SE,124,0.0,0.0,72,0.00,,---,0.00,VWS V14.01,2013-09-28 02:13:00,
2013-09-27 22:18:00,57.7,48.8,29.44,SE,124,0.0,0.0,72,0.00,,---,0.00,VWS V14.01,2013-09-28 02:18:00,
2013-09-27 22:23:00,57.6,48.6,29.44,SE,124,0.0,0.0,72,0.00,,---,0.00,VWS V14.01,2013-09-28 02:23:00,
2013-09-27 22:28:00,57.6,48.6,29.44,SE,124,0.0,0.0,72,0.00,,---,0.00,VWS V14.01,2013-09-28 02:28:00,
2013-09-27 22:33:00,57.7,48.8,29.44,East,100,0.0,0.0,72,0.00,,---,0.00,VWS V14.01,2013-09-28 02:33:00,
2013-09-27 22:38:00,57.7,48.4,29.44,East,100,0.0,0.0,71,0.00,,---,0.00,VWS V14.01,2013-09-28 02:38:00,
2013-09-27 22:43:00,57.6,47.9,29.44,East,100,0.0,0.0,70,0.00,,---,0.00,VWS V14.01,2013-09-28 02:43:00,
2013-09-27 22:48:00,57.6,47.9,29.44,East,100,0.0,0.0,70,0.00,,---,0.00,VWS V14.01,2013-09-28 02:48:00,
2013-09-27 22:53:00,57.6,48.2,29.44,SW,231,0.0,0.0,71,0.00,,---,0.00,VWS V14.01,2013-09-28 02:53:00,
2013-09-27 22:58:00,57.4,48.1,29.44,SW,231,0.0,0.0,71,0.00,,---,0.00,VWS V14.01,2013-09-28 02:58:00,
2013-09-27 23:03:00,57.4,48.1,29.44,SW,231,0.0,0.0,71,0.00,,---,0.00,VWS V14.01,2013-09-28 03:03:00,
2013-09-27 23:08:00,57.4,48.1,29.44,SW,231,0.0,0.0,71,0.00,,---,0.00,VWS V14.01,2013-09-28 03:08:00,
2013-09-27 23:13:00,57.4,48.1,29.44,SW,231,0.0,0.0,71,0.00,,---,0.00,VWS V14.01,2013-09-28 03:13:00,
2013-09-27 23:18:00,57.2,47.9,29.44,SW,231,0.0,0.0,71,0.00,,---,0.00,VWS V14.01,2013-09-28 03:18:00,
2013-09-27 23:23:00,57.2,48.3,29.44,SW,231,0.0,0.0,72,0.00,,---,0.00,VWS V14.01,2013-09-28 03:23:00,
2013-09-27 23:28:00,57.2,48.3,29.44,SW,231,0.0,0.0,72,0.00,,---,0.00,VWS V14.01,2013-09-28 03:28:00,
2013-09-27 23:34:00,57.2,48.3,29.44,SW,231,0.0,0.0,72,0.00,,---,0.00,VWS V14.01,2013-09-28 03:34:00,
2013-09-27 23:39:00,57.2,48.6,29.44,SW,231,0.0,0.0,73,0.00,,---,0.00,VWS V14.01,2013-09-28 03:39:00,
2013-09-27 23:44:00,57.2,48.6,29.44,SW,231,0.0,0.0,73,0.00,,---,0.00,VWS V14.01,2013-09-28 03:44:00,
2013-09-27 23:49:00,57.2,48.6,29.44,SW,231,0.0,0.0,73,0.00,,---,0.00,VWS V14.01,2013-09-28 03:49:00,
2013-09-27 23:54:00,57.2,48.6,29.44,SW,231,0.0,0.0,73,0.00,,---,0.00,VWS V14.01,2013-09-28 03:54:00,
2013-09-27 23:59:00,57.0,48.5,29.44,SW,231,0.0,0.0,73,0.00,,---,0.00,VWS V14.01,2013-09-28 03:59:00,